Theta_e
289 290 291 292 292 292 292 293 295 296 296 295 294 294 293 293 292 291 291 291 289 290 289 289 289 289 288 288 287 286 285 287 288 280 283 284 284 284 283 283 284 284 284
289 289 289 290 290 290 291 291 293 293 294 293 293 292 292 291 291 289 289 289 288 288 288 287 287 284 286 286 284 283 283 283 285 280 279 280 281 283 283 282 281 282 283
288 288 288 288 288 288 288 290 291 291 291 292 291 290 290 290 289 289 289 289 288 288 288 286 285 284 284 284 283 282 283 281 283 284 279 280 280 281 280 281 281 282 282
286 287 286 287 286 285 286 288 289 290 290 290 290 289 289 289 288 288 287 288 288 287 287 287 285 283 284 283 282 282 282 281 282 282 281 278 279 280 280 280 279 281 281
284 285 285 286 285 284 285 286 287 288 288 289 289 289 289 288 287 287 287 286 287 286 286 285 284 285 285 285 283 283 282 282 281 280 279 277 277 277 278 280 279 280 280
283 284 286 284 282 283 283 284 285 286 288 288 286 287 288 286 289 289 288 286 285 284 284 284 283 283 284 286 286 285 283 281 279 280 279 277 278 278 279 278 278 277 277
282 283 283 281 280 281 282 282 283 284 286 286 287 287 286 286 289 289 288 285 285 285 284 283 282 282 283 283 286 285 284 285 284 281 279 279 278 279 279 278 278 277 278
281 281 281 279 278 279 279 280 282 283 283 284 285 286 286 286 288 289 288 286 285 285 284 284 282 281 282 282 282 282 281 282 282 280 281 280 281 281 280 280 279 279 279
279 279 280 278 276 277 275 277 279 281 282 283 284 284 285 285 287 288 287 285 284 283 283 284 283 282 282 284 282 280 280 280 283 282 281 282 282 282 281 280 277 275 274
278 278 278 276 275 275 275 275 277 279 281 282 282 284 284 284 286 287 287 286 284 283 283 282 283 282 283 285 281 280 278 278 278 279 280 281 281 280 281 280 278 274 274
277 277 276 275 274 273 273 274 274 276 279 279 280 282 283 283 284 285 286 285 285 283 282 280 280 283 283 284 284 281 280 279 280 280 279 279 279 278 277 277 277 276 274
275 274 273 272 272 272 271 271 272 274 275 277 279 280 282 282 282 283 285 286 287 283 281 281 280 283 283 284 283 282 283 280 279 278 277 276 275 274 274 274 275 275 275
271 270 269 270 269 269 269 269 270 272 273 276 278 278 279 281 280 282 283 284 286 284 282 280 280 282 283 283 284 283 280 278 277 275 274 274 274 274 274 273 273 274 273
267 267 267 267 267 268 268 269 269 271 272 275 277 277 278 279 279 279 279 281 282 284 281 280 280 281 282 282 280 280 278 277 275 274 273 273 272 272 271 272 271 271 271
264 264 265 265 265 265 266 267 268 270 272 272 275 277 276 277 279 279 279 280 282 280 278 278 278 278 279 279 278 277 275 274 273 273 271 270 270 270 270 271 270 270 268
261 261 262 262 262 263 263 264 268 270 272 274 276 277 279 281 281 281 281 282 284 281 276 276 276 277 277 277 275 272 272 272 271 271 270 270 269 269 269 269 269 268 267
258 259 260 260 261 261 261 262 261 265 269 272 274 277 281 281 283 281 281 282 284 281 276 276 276 277 276 275 273 271 270 271 271 270 269 269 269 268 268 267 268 267 267
259 259 259 259 260 260 260 261 261 262 262 266 270 273 278 280 282 282 281 282 281 280 277 276 277 276 274 273 272 271 269 269 269 269 268 268 268 267 266 266 266 266 266
259 259 260 260 260 260 260 260 261 261 262 263 266 270 275 278 281 283 282 279 279 278 276 276 275 274 273 272 271 270 269 268 268 268 267 267 266 265 265 266 266 265 265
260 260 260 260 259 259 260 259 260 260 261 263 265 269 275 276 277 280 279 280 279 277 275 273 273 272 271 270 270 268 267 267 266 266 265 265 265 265 265 265 265 265 265
262 262 261 261 260 260 260 260 260 261 261 263 265 272 275 274 275 278 278 279 279 274 272 270 269 269 269 268 267 266 265 265 264 264 264 264 264 263 264 265 265 264 264
263 263 264 263 262 261 261 261 261 261 262 263 266 272 274 275 277 276 271 271 270 270 270 268 267 266 266 266 266 265 264 263 263 263 263 263 262 263 263 264 264 264 264
263 263 264 265 264 262 262 262 262 262 264 265 270 271 271 269 268 267 266 267 267 266 266 266 265 264 264 265 266 265 264 263 263 263 262 262 262 263 262 263 263 263 264
262 263 264 265 264 263 263 263 264 264 268 269 268 267 266 265 264 263 263 264 264 264 265 264 264 263 262 263 263 264 264 263 262 262 262 262 261 261 262 262 262 263 263
261 262 263 263 264 265 265 264 264 264 264 264 263 263 263 262 262 262 262 262 262 262 262 262 262 261 261 260 260 260 260 260 260 259 259 259 260 260 260 261 262 263 264
260 261 261 262 262 262 262 262 262 262 262 262 262 261 261 261 261 261 261 261 261 261 260 260 260 260 260 260 259 259 260 261 259 257 258 259 259 260 261 261 262 263 264
Wind_Speed
18 17 16 16 18 15 13 13 14 14 14 14 14 15 18 18 19 19 19 18 18 18 16 17 18 14 10 9 7 6 6 6 5 3 4 7 12 11 8 7 5 6 6
15 14 13 13 15 16 16 16 13 13 13 14 14 15 16 17 18 20 20 18 19 20 19 18 18 11 15 12 9 11 9 8 5 7 7 7 8 10 8 8 6 5 7
16 15 14 13 15 15 16 15 14 13 13 14 15 15 15 16 18 19 20 20 19 20 19 20 18 16 16 12 11 10 9 7 8 6 6 6 5 7 9 8 8 8 7
15 14 14 15 15 15 14 14 14 13 14 13 15 15 15 16 17 18 18 20 20 19 19 19 18 19 19 18 15 15 11 10 8 8 6 7 7 8 8 8 7 7 6
15 13 14 13 13 14 14 14 15 13 12 13 13 14 15 15 13 17 18 19 19 19 19 19 19 20 25 22 14 15 15 12 10 8 6 5 7 7 10 6 5 3 4
14 14 14 14 15 14 14 14 14 14 13 12 11 14 15 12 20 25 21 17 18 18 19 17 17 18 21 26 26 26 21 18 15 11 9 9 9 6 6 6 5 3 1
14 13 11 12 13 14 15 16 15 15 14 14 12 13 15 14 22 25 28 16 15 18 18 16 16 14 20 19 27 27 28 28 23 17 15 12 10 9 9 9 8 5 4
11 11 11 13 15 15 15 15 15 14 14 13 13 13 15 13 22 23 25 19 17 18 19 19 19 18 21 22 21 18 17 17 18 12 12 11 8 11 10 8 7 6 4
12 12 11 11 14 15 16 17 16 15 15 14 13 13 13 15 22 23 21 16 18 19 17 19 19 19 27 33 21 20 17 13 18 18 13 16 17 17 12 7 7 6 5
13 13 12 11 12 14 16 18 15 16 16 13 15 14 15 14 21 24 22 13 17 14 15 16 25 21 29 34 20 19 17 16 16 14 12 13 14 13 18 10 7 7 5
12 12 12 13 12 13 15 15 16 18 17 15 16 14 14 13 14 24 25 15 13 13 13 12 12 29 31 35 29 18 19 18 21 14 10 9 9 8 6 6 7 6 7
14 13 14 15 13 13 16 16 16 16 17 17 16 15 11 11 16 21 24 26 22 13 14 10 12 29 28 32 26 24 27 23 13 12 11 10 9 8 7 7 8 7 7
16 16 16 16 15 15 16 16 14 15 13 15 12 13 12 8 9 20 24 25 26 13 10 13 18 24 27 26 29 29 25 13 13 12 11 9 8 8 9 7 6 6 7
18 18 17 17 17 16 13 13 13 14 13 13 13 13 12 11 8 7 9 11 18 15 17 12 16 19 23 19 18 21 11 13 14 12 11 9 9 9 7 8 6 5 5
20 19 19 15 16 16 15 14 13 15 16 13 14 13 12 12 9 13 12 8 9 13 12 9 9 11 13 13 13 13 11 11 11 10 10 10 8 8 7 7 7 6 6
20 16 14 14 13 13 14 15 24 31 34 34 35 28 15 23 24 20 21 21 21 25 11 11 10 10 11 12 11 12 11 12 10 11 10 9 9 9 8 7 6 5 5
19 18 15 15 14 14 13 14 16 15 28 30 33 35 33 26 22 21 20 21 22 25 9 11 11 11 10 10 10 11 11 9 11 9 10 9 8 8 9 7 6 5 5
19 23 16 14 14 13 13 14 13 14 13 12 19 25 22 24 26 21 18 17 13 18 10 11 11 10 11 11 10 10 11 10 10 10 9 8 8 8 7 6 5 5 5
16 14 14 14 13 15 13 14 13 14 14 13 12 18 18 22 24 20 19 10 11 12 9 9 10 10 10 10 10 10 11 10 10 10 9 9 8 8 7 6 5 6 5
16 22 19 14 13 13 12 12 12 12 12 11 11 12 8 9 8 8 9 9 9 9 9 9 8 8 8 9 10 10 10 10 10 8 8 8 7 6 6 6 5 5 6
13 14 19 14 13 12 11 11 11 11 11 11 12 11 14 9 8 7 7 6 6 11 10 11 9 8 8 9 9 10 10 9 9 8 8 7 7 6 5 5 4 5 6
14 13 13 12 11 11 11 10 10 11 11 12 12 9 17 8 7 4 8 8 8 9 9 11 9 8 8 9 10 10 10 9 8 8 8 8 7 6 5 5 5 5 6
12 14 13 10 8 10 10 10 10 10 11 12 10 7 2 4 6 8 9 8 8 9 8 9 11 9 8 8 8 9 10 8 7 7 8 7 6 6 5 5 5 6 7
11 12 11 8 6 6 7 8 9 12 9 1 3 4 5 6 7 10 8 8 8 9 8 8 9 13 11 8 8 8 7 7 6 6 8 7 6 6 4 5 6 8 8
10 10 10 9 9 8 7 7 7 6 6 6 6 6 7 7 9 9 9 8 9 9 10 10 9 13 12 13 10 11 10 11 7 7 5 6 5 6 5 5 7 7 9
10 11 10 9 9 9 8 8 8 8 8 7 8 8 8 8 9 9 9 9 9 9 10 8 10 13 12 9 10 10 9 9 8 9 5 5 5 5 6 7 9 7 9
Wind_Direction
3 3 1 355 353 342 320 299 278 270 256 240 229 220 220 217 214 214 213 208 209 208 204 201 205 194 195 185 185 183 179 171 157 151 170 170 184 192 200 217 229 247 261
354 352 352 351 350 347 344 327 303 278 266 250 238 227 225 219 215 216 214 210 205 209 203 206 204 190 200 190 185 188 183 183 145 151 168 178 201 204 210 214 218 231 248
342 340 345 350 347 342 340 338 322 295 271 258 247 231 228 223 218 218 218 217 211 213 210 205 202 193 197 189 187 188 185 193 174 148 144 164 178 194 210 213 215 221 241
337 336 335 338 339 332 329 329 334 317 287 263 249 243 232 228 224 220 221 221 212 211 210 209 206 200 198 190 190 183 183 182 192 162 158 161 175 172 202 206 206 203 231
333 332 332 331 329 328 330 330 328 323 303 283 266 251 242 233 229 224 216 221 223 219 210 207 206 204 202 197 188 187 176 181 182 190 175 178 175 174 195 180 204 219 271
321 322 325 332 332 328 328 327 321 318 317 300 274 261 253 240 241 228 224 214 219 219 216 208 208 202 202 195 197 192 184 177 186 187 184 194 197 181 173 176 187 188 229
311 311 315 322 323 321 323 322 320 317 314 306 292 275 266 254 248 237 227 221 214 220 220 211 202 199 195 192 196 194 195 195 193 183 190 182 178 177 168 177 198 202 197
287 291 302 318 322 322 322 316 311 311 310 303 295 282 273 265 256 247 236 227 221 221 217 213 209 197 195 188 184 188 193 195 196 195 191 173 157 165 178 175 186 208 247
286 290 295 308 308 309 312 311 310 306 303 300 295 282 268 269 264 253 239 232 231 226 220 213 210 204 197 191 185 180 182 188 198 190 179 166 160 162 168 160 178 189 227
285 292 294 299 296 296 301 304 305 300 293 294 290 280 268 267 267 259 240 226 226 223 226 220 211 204 199 192 182 178 180 181 174 173 177 166 171 173 180 182 182 203 209
283 280 284 295 291 290 291 292 296 296 293 288 284 279 269 255 255 257 248 235 230 223 218 212 208 203 201 193 189 185 189 166 173 166 157 163 169 158 161 174 199 204 213
286 279 284 288 287 290 290 290 288 286 289 286 283 280 268 255 242 249 245 245 235 222 219 209 205 204 200 198 187 188 180 162 160 164 158 160 164 167 163 172 183 206 230
290 283 282 284 282 282 280 282 285 279 274 277 276 277 277 260 240 244 242 243 245 224 200 189 187 196 197 195 184 184 170 163 161 164 163 159 158 156 144 168 181 211 249
288 285 287 286 284 279 275 273 270 270 269 268 270 271 274 268 248 237 231 239 242 207 185 177 185 193 189 186 167 179 167 162 162 155 152 140 148 148 160 165 172 178 235
291 289 289 285 282 281 272 270 268 267 268 272 270 270 272 269 261 250 242 233 224 169 160 163 178 192 187 175 165 167 159 151 152 145 143 144 148 155 161 163 164 163 218
291 291 289 290 286 280 279 278 269 273 273 269 268 264 260 256 260 257 259 248 215 173 161 164 178 187 185 174 159 149 149 152 148 141 143 144 153 161 165 163 158 175 215
285 287 285 282 280 280 277 278 285 281 278 278 271 266 260 261 250 239 248 249 209 174 173 171 178 179 172 164 158 153 148 147 140 139 139 145 149 161 163 160 163 178 217
280 280 278 276 275 274 273 273 275 281 287 283 291 293 275 269 265 224 230 242 191 184 183 177 174 168 163 161 158 145 141 139 138 135 138 145 156 159 158 161 169 197 219
282 276 273 272 270 269 270 272 272 275 278 282 285 279 269 272 274 224 216 229 191 187 177 176 160 157 160 158 152 146 144 143 140 138 141 147 154 156 164 169 190 214 238
281 274 267 267 267 266 265 265 268 269 271 274 274 271 270 276 265 211 200 216 186 172 154 140 140 138 143 148 140 135 130 134 133 135 142 146 150 165 170 169 193 213 235
288 279 270 266 262 262 262 262 265 269 272 274 276 268 261 262 269 202 184 211 162 140 134 125 121 127 130 133 132 129 133 133 133 139 141 149 152 161 179 190 205 226 247
293 292 286 271 261 255 255 257 260 264 267 270 273 273 274 267 246 128 90 91 98 116 127 127 126 129 134 139 138 134 131 133 139 144 145 145 156 171 175 194 213 237 253
301 300 297 291 268 260 262 259 258 258 262 264 265 282 34 84 104 101 104 108 111 112 111 118 121 118 118 122 123 126 136 148 153 152 145 150 163 173 183 206 219 242 254
315 317 325 324 307 284 273 272 265 257 263 334 60 72 81 87 93 95 97 101 103 102 108 116 116 120 116 109 110 114 116 123 134 143 140 148 165 171 193 215 230 246 261
334 339 347 352 360 2 10 16 22 31 43 50 62 71 79 85 91 92 94 94 96 99 98 105 105 110 112 118 120 118 127 130 134 141 149 159 177 190 209 231 247 257 264
351 356 359 1 7 14 22 29 33 38 46 53 61 67 74 80 81 84 86 88 91 91 95 88 97 107 115 117 124 130 149 157 165 171 165 176 194 211 220 235 248 256 267